Theta_e
306 308 311 310 307 305 306 307 309 310 306 303 307 308 309 309 309 309 308 307 305 304 304 304 304 303 303 303 304 304 302 300 302 303 304 305 306 308 309 309 308 307 306 309
306 308 306 305 305 305 306 308 312 309 304 303 306 307 309 309 309 306 306 305 305 304 304 304 304 304 303 302 301 300 300 300 304 306 306 306 306 306 306 307 307 306 306 307
307 306 303 304 305 305 307 307 308 306 305 306 305 311 316 309 305 305 304 305 305 305 305 304 304 303 302 301 300 300 300 300 299 299 302 304 304 304 303 303 303 304 304 305
306 303 303 304 305 305 307 303 303 304 307 317 304 319 314 314 309 306 305 305 304 304 304 304 302 302 302 300 300 300 300 299 299 298 298 298 300 301 302 302 302 302 302 303
307 304 303 305 306 304 306 303 303 304 306 303 309 310 315 309 310 310 308 305 305 305 304 303 303 302 301 300 300 300 300 299 298 299 300 300 300 300 300 300 300 300 300 301
303 302 303 305 302 302 303 303 303 303 306 314 307 311 317 315 312 308 307 307 306 305 304 303 301 300 300 301 301 299 297 297 299 300 302 302 301 301 300 300 301 301 301 301
305 304 302 302 303 303 303 305 324 324 322 324 304 306 313 313 309 308 306 305 305 305 303 302 302 302 301 300 298 297 297 299 300 301 300 300 299 299 298 298 298 299 299 300
312 316 304 303 303 304 305 304 315 321 320 317 301 312 312 307 305 306 307 305 304 303 303 302 302 301 300 299 297 297 299 300 300 299 299 299 298 298 297 297 297 297 298 298
309 307 302 302 302 302 304 304 301 308 296 305 313 311 310 309 308 306 304 304 304 304 303 302 301 301 299 297 297 299 301 300 300 299 297 296 295 295 295 295 295 295 295 295
303 308 301 301 301 301 302 301 308 309 313 318 320 315 316 314 307 304 304 304 304 303 302 302 301 300 297 296 298 301 301 300 298 296 295 294 294 294 293 293 293 293 294 295
301 303 304 301 303 306 302 303 302 303 306 313 317 318 313 317 309 307 305 303 303 303 303 302 300 298 296 297 301 301 299 297 296 294 293 293 293 293 292 292 292 292 293 293
302 304 306 305 300 299 301 304 304 308 312 305 303 308 310 306 304 302 303 303 303 302 301 300 298 297 297 301 301 298 297 295 293 292 292 291 292 292 292 292 292 292 292 292
302 307 312 310 300 298 300 302 302 302 301 304 307 310 305 303 305 305 306 304 303 302 301 298 297 296 300 300 297 297 295 294 293 292 291 292 292 292 292 292 293 294 295 295
302 308 310 312 312 305 302 301 301 302 305 307 307 306 306 307 308 308 308 305 303 301 298 297 295 296 300 297 296 295 294 293 293 292 292 292 292 292 293 295 296 296 296 296
305 307 306 306 306 306 305 304 305 302 303 307 308 309 309 308 307 306 304 303 301 299 297 295 294 298 298 297 297 296 294 293 292 291 293 293 293 295 297 297 297 297 297 297
301 306 299 301 302 302 303 303 304 303 304 304 304 304 305 304 305 304 303 301 298 298 296 294 294 300 297 297 297 295 293 293 291 292 294 294 295 296 298 298 297 297 297 297
302 303 301 307 296 296 303 301 302 303 303 303 304 305 305 304 303 301 301 300 298 295 295 294 295 299 297 297 297 294 293 292 292 293 294 294 295 298 298 297 297 297 296 297
303 302 304 306 300 306 306 302 301 302 303 303 303 303 303 300 298 298 299 297 296 295 295 294 296 299 297 297 297 295 295 292 292 293 293 294 296 297 298 298 297 298 297 296
301 302 304 305 306 304 304 303 303 301 303 303 302 301 298 297 297 300 296 296 296 295 295 294 295 299 297 297 297 296 296 293 293 292 292 293 295 296 297 298 296 297 298 298
299 302 303 304 303 303 303 298 296 297 302 304 300 299 298 299 305 305 297 300 299 296 295 294 295 300 297 297 297 296 296 293 293 291 292 292 293 294 295 297 297 297 298 298
300 301 302 304 304 304 303 298 295 302 302 301 298 300 299 301 303 302 302 300 299 297 296 295 296 300 297 297 298 296 297 295 293 293 293 291 293 293 294 296 296 297 298 298
300 301 302 302 304 305 302 295 299 302 301 299 299 300 300 300 300 299 300 299 298 297 296 295 295 300 297 297 299 297 297 296 294 294 293 292 293 293 294 295 296 297 298 297
301 301 303 302 302 302 299 300 298 298 297 299 298 298 299 299 300 299 300 300 299 297 295 294 294 297 298 297 299 299 297 297 296 295 292 293 293 293 294 295 295 297 296 297
299 300 301 300 301 301 300 299 297 297 297 298 299 299 299 299 300 300 300 300 298 296 296 294 294 294 300 296 298 298 298 298 297 296 293 293 293 293 294 294 295 295 295 296
299 299 299 298 298 299 299 299 299 299 299 299 299 300 299 299 299 299 299 300 300 298 300 295 294 294 300 296 295 298 297 298 298 297 296 294 293 293 294 293 294 294 294 295
297 298 299 300 299 299 299 299 299 299 299 300 299 299 298 298 299 298 298 299 299 299 302 301 294 294 298 300 294 294 295 296 298 298 297 296 295 294 293 294 294 294 294 294
Wind_Speed
2 4 7 4 3 4 5 6 11 11 6 7 10 20 26 22 24 25 20 14 12 11 12 12 11 9 6 5 4 6 12 20 24 24 22 22 24 24 23 23 26 28 29 25
4 7 4 2 1 2 4 8 6 8 3 4 12 24 27 21 10 6 5 5 10 12 12 11 9 7 5 4 3 9 22 24 18 17 18 21 22 26 24 25 28 32 35 33
7 3 4 2 3 5 7 7 6 5 10 8 13 11 8 3 4 6 6 6 9 10 10 10 9 8 7 7 10 17 27 34 28 26 30 35 38 40 41 43 43 43 41 41
5 4 4 4 6 4 7 3 1 6 8 3 6 6 10 4 6 7 10 11 11 10 9 8 8 9 9 14 18 23 32 39 36 32 35 37 40 41 42 40 39 37 37 46
4 3 4 6 3 4 2 1 3 5 3 4 2 3 7 2 4 7 11 14 14 12 11 9 9 10 13 20 27 34 41 44 36 32 33 35 38 41 42 40 41 42 45 45
1 1 2 3 1 2 1 4 4 1 2 3 4 3 7 4 3 5 5 13 15 13 12 11 11 13 17 20 35 39 33 34 33 33 35 36 38 40 40 38 38 37 37 38
4 4 3 3 3 3 3 5 3 3 3 2 5 3 11 9 3 2 5 6 7 10 10 9 12 11 18 32 32 32 31 34 34 34 34 34 37 38 40 40 38 36 36 36
4 4 5 6 2 2 5 2 3 6 4 4 2 7 4 1 3 6 8 7 7 9 11 13 10 15 28 32 32 32 33 34 32 30 31 33 36 37 37 35 34 35 34 33
2 3 4 2 2 3 4 4 3 2 2 3 5 6 13 9 11 11 11 9 11 7 7 10 13 22 29 31 32 32 32 31 30 36 36 34 34 33 36 38 39 38 39 41
3 3 2 3 1 2 3 1 2 2 4 6 4 4 10 5 1 4 4 1 2 2 13 13 21 29 29 29 31 28 27 31 36 34 31 30 32 32 34 36 37 37 40 37
1 1 3 2 5 1 3 3 4 3 3 4 8 5 1 4 7 3 4 5 6 16 19 20 24 23 24 28 25 28 32 33 32 33 32 30 31 32 33 34 34 35 35 35
1 1 3 5 4 2 1 2 4 4 3 4 3 11 11 7 5 3 9 9 15 16 21 22 20 21 23 23 25 36 35 31 33 34 32 30 31 31 32 32 33 32 36 35
4 2 3 4 2 3 5 7 7 4 3 11 8 9 5 3 7 14 18 17 14 22 20 20 19 19 21 25 34 36 33 34 33 33 32 31 31 32 32 31 31 31 32 33
2 3 6 11 8 3 4 8 11 10 5 9 17 27 26 23 23 21 24 29 25 19 21 20 18 21 23 32 35 34 34 34 32 32 31 31 32 32 32 31 30 30 30 32
1 6 6 12 14 13 14 15 15 15 19 11 25 23 25 25 24 28 33 22 22 28 26 19 20 22 28 35 37 36 35 34 31 30 29 29 28 28 28 30 32 32 30 31
3 3 1 4 8 9 14 19 18 21 24 24 29 31 27 35 26 23 25 23 25 32 28 20 21 24 29 34 35 36 34 31 29 28 26 26 27 27 28 30 30 28 26 26
7 4 4 6 2 3 9 11 19 15 18 19 20 23 19 25 21 25 26 28 24 22 18 21 22 23 28 32 34 34 32 28 27 25 25 25 25 25 26 26 24 23 20 13
6 6 4 4 1 11 9 3 7 12 17 18 20 21 18 22 27 22 17 16 16 15 22 22 21 23 26 30 32 32 30 26 25 24 23 23 22 23 24 23 21 19 17 14
14 7 4 5 9 15 23 17 14 10 12 15 17 15 13 13 11 1 7 14 17 22 24 23 20 20 25 28 31 30 29 26 25 25 23 22 21 22 21 21 20 18 16 14
9 14 7 7 7 9 11 5 7 6 9 12 12 9 7 7 9 11 18 29 30 26 24 22 19 19 23 27 29 29 28 26 25 24 22 21 19 19 18 17 16 16 16 16
6 5 17 15 11 10 12 11 10 5 9 13 14 9 6 4 9 21 30 31 30 27 25 22 20 19 20 23 27 27 27 26 23 21 20 18 17 16 14 14 13 12 13 18
12 10 9 10 10 18 13 12 9 9 6 7 5 5 12 18 23 26 30 31 29 30 26 23 21 17 16 19 24 25 26 24 21 17 17 16 16 14 13 13 13 13 14 18
8 12 9 11 10 10 9 9 18 11 9 11 17 24 30 25 33 29 30 36 35 29 27 22 23 19 14 14 19 22 23 21 21 16 15 15 14 13 13 14 14 15 16 19
11 16 12 12 19 23 26 21 19 20 24 28 31 35 28 26 30 33 33 34 33 27 28 23 18 19 15 11 12 16 20 19 18 16 13 14 18 17 17 18 18 18 20 17
12 12 19 19 26 27 28 27 25 27 31 32 33 29 25 27 29 29 32 30 32 26 29 26 19 18 17 13 9 9 13 18 18 15 14 15 18 21 23 26 25 26 26 24
21 22 15 16 17 19 21 26 28 28 25 24 24 28 29 31 36 38 36 32 32 25 25 33 24 18 18 16 12 7 7 10 14 14 14 16 18 22 25 27 29 29 29 28
Wind_Direction
60 263 235 12 342 318 298 282 282 292 32 308 275 284 287 288 282 279 273 260 241 218 190 187 188 202 211 249 272 300 314 312 298 288 284 277 272 268 266 260 261 263 266 257
209 240 57 78 141 263 260 288 289 289 15 302 300 294 284 288 264 261 269 199 177 174 181 181 181 186 200 196 274 313 330 323 294 283 277 268 264 258 253 252 251 255 258 256
257 72 124 222 227 263 252 255 295 282 319 265 308 272 279 179 210 233 219 199 183 180 182 186 194 198 200 247 284 300 324 330 312 294 284 279 275 271 268 262 259 258 257 256
266 109 202 227 252 227 277 46 281 297 337 302 13 287 293 265 244 205 206 207 205 204 201 200 209 216 235 265 286 299 313 317 310 295 285 279 273 270 268 266 264 264 264 262
86 179 202 238 265 199 11 348 310 310 296 323 177 229 276 166 228 217 205 209 212 216 218 226 238 250 263 284 300 308 305 305 298 289 282 277 275 275 274 269 265 261 257 252
297 119 240 343 97 260 61 275 226 245 168 242 143 226 286 246 146 156 170 204 214 219 225 233 251 279 293 304 311 308 299 298 295 292 287 280 276 275 275 273 270 267 263 258
172 197 145 194 225 179 244 280 276 249 217 274 146 212 250 282 169 194 168 177 217 216 227 256 278 284 306 315 312 306 303 299 297 292 286 281 279 278 277 275 273 271 268 262
236 231 187 151 265 10 187 297 298 289 287 348 163 240 243 338 345 244 235 234 238 236 247 272 278 299 312 314 311 309 305 298 295 293 289 282 278 276 275 273 269 266 266 266
247 182 117 76 344 308 133 204 55 293 142 271 233 263 268 275 230 243 231 250 249 246 252 265 286 309 312 309 311 310 304 302 297 291 292 288 285 282 277 274 273 274 272 271
43 276 27 90 222 168 283 30 237 172 282 273 232 262 261 263 86 121 151 176 224 295 317 294 299 308 309 312 313 310 303 298 298 295 294 291 290 287 283 284 279 274 266 264
197 248 109 172 198 240 159 227 221 285 241 275 298 268 15 24 21 25 64 356 338 320 313 302 304 308 311 316 314 306 303 304 302 305 308 303 296 293 294 291 287 283 278 271
134 229 231 239 96 47 56 297 241 261 214 254 301 265 307 60 72 6 302 294 304 312 312 308 308 310 316 316 312 314 319 308 315 319 314 312 309 307 304 298 295 289 284 277
174 193 278 184 178 185 223 195 217 224 263 255 263 263 110 4 307 285 293 278 303 313 316 312 310 316 322 318 322 327 321 318 324 323 318 321 318 316 308 306 303 298 291 284
184 206 241 261 317 40 210 207 213 207 234 272 247 282 277 280 277 296 303 316 311 306 315 309 311 322 323 327 332 329 325 329 329 324 327 328 323 318 317 314 308 301 294 287
156 250 231 259 277 282 266 263 246 225 238 247 267 264 287 287 298 301 303 303 311 311 313 316 321 324 330 338 336 333 332 334 334 332 333 330 327 327 325 323 318 312 300 288
174 250 137 262 247 269 268 259 255 250 255 256 262 271 273 285 301 308 301 301 310 313 318 322 325 327 339 342 337 333 336 339 338 337 335 335 333 333 333 327 326 321 311 299
182 202 207 250 84 313 271 242 226 244 243 242 254 261 298 306 311 307 303 304 306 317 322 324 325 331 342 342 338 334 340 339 341 340 339 339 335 338 334 337 340 342 337 321
188 186 202 274 133 256 250 186 237 248 244 240 256 280 298 311 314 303 300 308 322 322 325 324 323 328 339 344 340 337 344 343 340 346 345 337 335 338 341 346 350 357 2 358
216 192 226 243 240 282 293 278 264 211 263 245 252 267 290 305 312 317 358 349 334 323 321 320 317 322 333 345 342 342 348 346 345 352 344 338 339 339 347 352 355 4 9 8
227 218 210 214 241 256 265 116 137 132 267 256 195 239 261 322 338 324 320 323 320 314 320 323 316 316 328 344 347 348 351 349 352 351 344 342 347 347 355 4 4 20 15 17
179 201 221 228 239 256 257 159 158 229 284 166 189 212 229 294 297 302 313 311 318 318 307 320 317 313 324 340 349 354 355 353 351 353 348 349 355 359 2 13 14 35 42 43
182 181 208 225 233 248 195 140 216 255 285 207 214 311 315 299 309 307 311 314 313 315 312 307 310 306 313 336 350 359 360 356 355 357 356 358 10 14 18 31 38 43 55 63
220 211 209 204 216 244 195 227 228 240 281 279 297 306 319 304 311 310 314 320 322 320 317 302 301 296 300 326 350 2 5 3 7 11 8 18 27 29 41 48 56 59 59 66
231 244 243 260 249 256 261 263 254 259 265 273 285 296 297 297 310 313 314 319 323 326 333 317 286 285 284 298 344 2 14 14 22 24 34 45 53 52 59 64 61 59 63 66
250 252 244 253 255 268 271 266 262 259 267 273 280 284 299 306 309 314 317 318 325 317 319 320 287 277 274 275 302 351 8 23 32 32 47 64 70 70 68 63 60 62 65 69
243 247 244 245 263 262 259 256 259 267 272 277 276 292 287 294 300 310 303 307 313 307 292 307 296 268 267 264 268 286 335 16 37 46 54 67 80 83 84 81 79 74 75 76